Theta_e
291 291 291 290 290 289 289 289 289 288 288 287 287 287 287 287 287 287 287 286 286 287 287 287 287 286 286 286 285 285 284 284 284 283 283 283 283 283 283 283 283 282 282 282 282 282 282 281 281 280 280 280 279 278 278 277 277 276 276 276 276 276 276 276 276 276 277 277 276 276 276 275 275 275 274 274 274 274 274 274 274 274 275 275 275
291 290 290 290 289 289 289 288 288 288 287 287 287 287 287 287 287 287 287 286 287 287 288 287 287 286 286 286 285 284 284 284 284 283 283 283 283 283 283 282 282 282 282 282 282 281 281 281 280 280 280 279 278 278 277 277 276 276 276 276 275 275 275 275 275 275 276 276 275 275 275 274 274 274 274 274 274 274 274 274 274 274 274 274 275
290 290 290 289 289 289 288 288 287 287 287 287 287 287 287 287 287 287 287 287 287 287 287 287 287 286 286 285 285 284 284 283 283 283 283 283 283 282 282 282 282 282 282 281 281 281 281 281 280 280 279 279 278 277 276 276 276 275 275 275 275 274 274 274 274 274 274 274 274 274 274 274 273 273 273 273 273 273 273 274 274 274 274 274 274
290 289 289 289 288 288 287 287 287 287 287 287 287 287 287 287 287 287 287 287 287 287 287 287 286 286 285 285 284 284 283 283 283 283 282 282 282 282 282 282 282 281 281 281 281 281 280 280 280 279 279 278 277 277 276 275 275 275 275 275 274 274 274 273 273 273 273 273 273 273 273 273 273 273 273 273 273 273 273 274 274 274 274 274 275
289 289 289 288 288 287 287 287 287 287 287 287 287 287 287 287 286 287 287 287 287 287 287 286 286 286 285 284 284 283 283 283 283 282 282 282 282 282 281 281 281 281 281 280 280 280 280 280 279 279 278 277 277 276 275 275 275 275 274 274 274 274 273 273 273 273 273 273 273 273 273 273 272 273 273 273 273 273 274 274 274 274 275 275 275
289 288 288 288 287 287 287 287 287 287 287 287 287 287 287 287 287 287 287 287 287 287 287 286 286 285 285 284 283 283 283 282 282 282 282 282 282 281 281 281 281 281 280 280 280 280 280 279 279 278 277 277 276 276 275 275 275 274 274 274 274 274 273 273 273 273 273 273 273 273 273 272 273 273 273 273 273 274 274 274 275 275 275 275 275
289 288 288 287 287 287 287 287 287 287 287 287 287 287 287 287 287 287 287 287 287 287 286 286 286 285 284 284 284 283 282 282 282 282 282 281 281 281 281 281 280 280 280 280 280 280 279 279 279 278 277 276 276 275 275 275 275 274 274 274 274 274 273 273 273 273 273 273 273 273 273 273 273 273 274 274 274 274 274 275 275 275 275 275 276
288 288 287 287 287 287 287 287 287 287 287 287 287 287 287 287 287 287 287 287 287 286 286 286 285 285 284 284 283 283 282 282 282 282 281 281 280 280 280 280 280 280 280 279 279 279 279 279 278 277 277 276 276 275 275 275 274 274 274 274 274 274 273 273 273 273 273 273 273 273 273 274 274 274 274 274 274 275 275 275 275 275 276 276 276
288 287 287 287 287 287 287 287 287 287 287 287 287 287 287 287 287 287 287 286 286 286 286 285 285 284 284 284 283 283 283 283 282 281 281 280 280 280 280 280 280 280 279 279 279 279 279 278 278 277 277 276 276 275 275 274 274 274 274 274 274 274 274 274 274 274 274 274 274 274 274 274 274 275 275 275 275 275 276 276 276 276 276 276 276
288 287 287 287 287 287 287 287 287 287 287 287 287 287 287 287 287 287 287 286 286 286 286 285 285 285 284 284 283 283 283 283 282 281 280 280 280 280 280 279 279 279 279 279 279 279 278 278 278 277 276 276 275 275 274 274 274 274 274 274 274 274 274 274 274 274 274 274 274 275 275 275 275 275 275 275 275 276 276 276 276 276 276 276 277
288 287 287 286 286 286 286 287 287 287 287 287 287 287 286 286 287 287 286 286 286 286 286 286 285 285 285 284 283 283 283 282 282 280 280 280 280 280 279 279 279 279 279 279 279 278 278 278 278 277 276 276 275 275 274 274 273 274 274 274 274 275 275 275 275 275 275 275 275 275 275 275 275 275 275 276 276 276 276 276 276 276 276 277 277
287 287 286 286 286 286 286 286 286 286 286 287 287 286 286 286 287 286 286 286 286 286 286 286 286 285 285 284 283 283 283 282 281 280 279 279 279 279 279 279 279 279 279 279 279 278 278 278 277 277 276 275 275 274 274 273 273 273 274 274 274 275 275 275 276 276 276 276 276 276 275 275 276 276 276 276 276 276 276 276 276 276 277 277 277
287 286 286 286 286 285 286 286 285 285 286 286 287 286 286 286 286 286 286 286 286 286 286 286 286 285 285 284 284 284 283 282 281 280 279 279 279 279 279 279 279 279 279 279 278 278 278 278 277 276 275 275 274 274 273 273 274 274 274 275 275 275 275 276 276 276 276 275 275 275 275 275 275 275 275 275 276 276 276 276 276 276 276 276 276
287 286 286 286 285 285 285 285 285 285 285 286 286 286 286 286 286 286 286 286 286 286 286 286 286 286 285 285 284 284 283 282 281 280 279 278 278 278 279 279 279 279 279 278 278 278 277 277 276 276 275 274 274 274 274 274 274 274 275 275 275 275 275 275 275 275 275 275 275 275 275 275 275 275 275 275 275 275 275 275 275 274 274 274 274
287 286 286 286 285 285 285 285 285 284 284 284 285 286 286 286 286 286 286 286 286 286 286 286 286 285 285 285 284 284 283 282 281 279 279 278 278 278 279 279 279 279 278 278 277 277 277 276 275 275 274 274 274 274 274 274 274 275 275 276 275 275 275 274 274 274 274 274 274 274 274 274 274 275 275 274 274 274 273 273 273 273 273 273 273
287 287 286 286 285 285 285 285 284 284 284 284 284 285 286 286 286 286 286 286 286 286 286 286 286 285 285 284 284 284 284 282 281 279 279 278 278 278 279 279 279 278 278 277 277 276 276 276 275 274 274 274 274 274 274 274 275 276 276 276 275 274 274 274 274 273 273 273 274 274 274 274 274 273 273 273 272 272 271 271 271 271 271 272 273
287 287 286 286 286 285 285 285 284 284 284 283 284 285 285 286 286 286 286 286 285 286 286 286 286 285 285 284 284 284 284 282 281 280 279 278 278 278 279 279 278 278 277 277 276 276 276 275 275 274 274 274 274 274 274 275 276 276 276 275 274 274 274 273 272 272 272 273 273 273 273 272 272 271 271 271 270 270 270 270 270 271 271 272 272
287 287 286 286 286 286 285 285 285 284 284 284 284 284 285 286 286 286 286 286 286 286 286 286 285 285 285 284 284 284 284 282 281 280 279 278 277 278 278 278 277 277 276 276 276 276 276 275 275 274 273 273 274 274 275 276 276 276 275 275 274 274 273 272 272 272 272 272 272 272 271 271 270 270 270 270 269 269 269 269 270 271 271 272 272
287 287 287 287 286 286 286 285 285 284 284 284 284 285 285 285 286 286 286 286 286 286 286 285 285 285 285 284 284 284 284 282 281 280 280 278 277 278 278 277 277 277 276 276 276 275 275 275 275 274 273 273 274 275 276 277 276 275 275 275 275 274 272 272 272 273 272 272 271 270 271 271 270 270 270 269 268 268 268 269 269 269 270 270 270
288 288 287 287 286 286 286 285 285 285 284 284 285 285 284 284 285 285 285 285 285 285 285 285 285 285 285 284 284 284 284 283 281 280 280 278 277 277 277 277 277 277 276 276 275 275 274 275 274 274 273 274 275 276 277 276 276 275 275 275 274 273 272 272 273 273 272 271 270 270 270 271 270 270 269 268 267 267 267 267 268 268 268 268 269
288 288 287 287 287 286 286 286 285 285 285 285 284 284 284 284 284 285 284 284 284 284 284 284 284 284 284 284 284 284 283 283 282 280 280 278 277 277 277 277 277 276 275 275 275 274 274 274 274 273 273 274 275 276 276 276 275 275 275 274 273 273 273 273 273 272 271 270 270 271 271 271 270 269 268 267 266 266 266 266 266 267 267 267 268
288 288 287 287 287 286 286 286 286 285 285 285 284 284 283 283 284 284 283 283 282 283 283 283 283 283 283 283 283 283 283 283 281 280 279 279 278 277 277 277 276 275 275 274 274 274 274 273 273 273 273 274 275 275 275 275 275 275 274 273 273 273 273 273 272 270 270 270 270 271 271 270 269 269 267 267 266 266 266 266 266 267 267 267 268
289 288 287 287 287 286 286 286 286 285 285 284 284 284 283 283 283 282 282 282 281 281 281 281 281 281 282 282 282 283 283 282 281 280 279 279 278 277 276 276 276 275 274 275 275 274 274 273 272 272 273 275 275 275 275 275 275 274 273 273 273 273 272 271 270 270 270 270 270 270 270 269 268 267 267 266 266 266 266 266 267 267 267 267 267
289 288 288 287 287 287 286 286 286 285 285 285 284 284 283 283 282 282 281 280 280 280 280 279 279 279 280 281 282 282 282 282 281 280 279 279 278 277 276 276 276 275 274 275 275 274 273 273 272 273 274 274 275 275 275 274 273 272 272 272 272 272 271 270 269 269 269 269 269 269 269 268 267 266 266 266 266 266 266 266 267 267 267 267 267
289 289 288 288 287 287 286 286 286 285 285 285 284 284 283 282 281 281 280 279 279 279 279 278 278 278 278 279 281 282 282 282 281 280 279 278 278 277 276 276 276 276 275 274 274 274 273 273 273 273 274 275 275 275 275 274 272 271 271 271 271 271 270 269 269 269 268 268 268 268 268 268 267 266 266 266 266 266 266 266 267 267 267 267 267
290 290 289 289 288 287 287 286 286 285 285 285 284 284 283 283 282 281 280 279 279 278 278 277 277 277 277 278 280 280 280 281 280 280 279 277 277 277 276 275 276 277 276 275 275 274 274 274 274 274 274 275 275 275 274 273 272 270 270 270 270 270 269 269 268 268 268 268 267 267 267 267 267 267 266 266 266 266 266 266 266 266 267 266 266
290 290 289 289 289 288 287 287 286 286 285 284 284 283 283 282 282 280 280 279 278 277 277 277 276 276 276 277 278 277 277 277 278 279 279 278 277 277 276 275 275 276 276 276 275 275 275 275 275 275 275 275 275 274 273 272 271 270 269 269 269 269 269 268 268 267 267 267 267 267 267 267 267 267 267 266 266 266 266 266 266 266 266 266 266
289 289 289 288 288 288 288 287 287 286 285 285 284 283 283 282 281 281 281 280 279 278 277 276 276 276 276 276 275 274 274 275 276 278 279 279 278 277 277 275 275 275 275 275 275 275 275 275 274 274 275 275 274 273 272 271 271 270 269 269 269 269 268 267 267 267 266 266 266 266 266 266 266 266 266 266 266 266 266 266 266 266 266 266 266
288 288 288 287 287 287 287 286 286 286 285 285 284 283 283 282 282 282 282 281 280 280 278 278 278 277 276 275 275 274 274 275 277 279 280 279 278 278 277 276 275 274 274 274 274 274 274 273 273 273 274 274 273 272 272 272 271 270 269 269 268 268 268 267 267 267 266 266 266 265 265 265 266 266 266 265 266 266 266 266 266 266 266 266 265
287 287 287 287 286 286 286 286 285 285 285 284 284 283 282 282 281 281 281 280 280 279 278 278 278 277 276 276 276 275 276 277 278 278 278 278 277 277 277 276 275 274 273 273 273 273 273 272 272 272 273 273 272 272 272 271 271 270 269 268 268 267 267 267 267 266 266 266 266 265 265 265 265 266 265 265 265 265 265 266 266 266 266 265 265
286 286 286 286 286 285 285 285 284 284 283 283 282 282 281 281 280 280 279 279 278 278 277 277 277 276 276 276 276 275 276 276 276 276 277 277 276 276 275 275 274 273 273 273 273 273 273 272 272 272 272 272 272 272 272 271 270 270 269 268 268 267 267 267 266 266 266 266 265 265 264 264 264 265 265 265 265 265 265 265 265 265 265 265 265
285 285 285 285 285 284 284 283 283 282 282 281 280 279 279 278 278 278 277 276 276 276 276 275 275 275 275 275 275 275 275 275 275 275 275 275 275 275 275 275 274 274 274 273 273 273 273 273 272 272 272 272 272 272 272 271 270 270 269 268 268 267 267 266 266 265 265 265 265 265 265 264 264 264 264 264 265 265 265 265 265 265 265 265 265
284 284 284 284 283 283 282 282 281 281 280 280 279 278 277 276 276 277 277 276 275 275 275 275 275 275 275 276 276 275 275 275 274 274 274 275 275 275 275 275 275 275 275 275 275 274 273 273 273 272 272 272 272 272 271 270 270 269 268 267 267 267 267 266 265 265 265 265 265 265 264 264 264 263 264 264 264 264 265 265 265 265 265 265 265
282 282 282 282 281 281 281 280 280 279 279 278 278 277 276 276 275 275 274 274 274 274 274 275 275 275 275 276 276 276 275 274 274 274 274 275 275 276 276 276 276 276 276 276 276 275 274 273 273 273 272 272 272 272 271 270 270 269 268 267 267 267 267 266 265 265 265 265 264 264 264 264 263 263 263 264 264 264 264 265 265 265 264 264 265
281 281 280 280 280 279 279 279 278 278 278 277 277 276 276 275 274 274 273 272 273 273 273 274 274 274 275 275 275 275 276 275 274 274 274 275 275 275 276 276 276 276 276 276 276 276 275 274 273 273 272 272 272 272 271 270 270 269 268 267 267 266 266 266 265 265 265 264 264 264 264 263 263 263 263 263 263 264 264 264 264 264 264 264 265
279 279 279 279 278 278 277 277 277 277 276 276 276 275 275 274 273 273 272 272 271 272 272 272 272 273 273 274 274 275 275 276 275 275 275 275 275 275 276 276 276 275 275 276 276 275 275 274 273 273 272 272 272 271 271 270 269 268 268 267 266 266 266 265 265 265 264 264 264 264 264 263 263 263 263 263 263 263 264 264 264 264 264 265 265
278 278 277 277 277 276 276 275 275 275 275 274 274 274 273 273 272 272 271 271 271 271 270 270 271 271 271 272 273 274 275 275 275 276 275 275 276 276 276 276 275 275 275 274 274 274 274 273 273 272 272 272 271 271 270 269 269 268 267 266 266 265 265 265 265 264 264 264 264 264 263 263 263 262 262 262 262 263 263 264 264 264 264 264 264
276 276 276 275 275 275 274 274 273 273 273 273 273 272 272 271 271 271 270 270 270 270 269 269 269 270 270 271 272 273 273 274 274 275 275 274 275 275 275 275 274 274 274 273 273 273 272 272 272 271 271 271 271 270 270 269 268 267 266 266 265 265 265 264 264 264 264 264 264 264 263 263 263 262 262 262 262 262 263 263 263 263 264 264 264
274 274 274 273 273 273 272 272 272 272 272 271 271 271 271 270 270 270 269 269 269 268 268 268 268 268 269 269 270 271 271 271 272 272 273 273 273 273 273 273 273 273 273 272 272 272 271 271 271 270 270 270 270 269 269 268 267 266 266 265 265 264 264 264 264 264 264 263 263 263 263 263 263 262 261 261 261 262 262 262 263 263 264 264 264
272 272 271 271 271 271 271 271 270 270 270 270 270 270 269 269 269 269 268 268 268 267 267 267 267 267 268 268 268 269 269 269 269 269 269 270 270 270 270 271 271 271 271 271 271 270 270 270 270 269 269 269 269 269 268 267 266 266 265 265 264 264 264 264 264 264 263 263 263 263 263 263 262 262 261 261 261 261 262 262 262 263 263 263 263
270 270 269 269 269 269 269 269 269 269 269 269 268 268 268 268 268 267 267 267 267 266 266 266 266 267 267 267 267 267 268 267 267 267 267 267 267 267 267 268 268 268 268 268 268 268 269 269 268 268 268 268 268 268 267 266 266 265 265 264 264 264 264 264 264 263 263 263 263 263 262 262 262 261 261 261 261 261 261 261 261 262 262 263 263
268 268 268 268 268 268 268 268 268 267 267 267 267 267 267 267 266 266 266 266 266 266 265 265 265 265 265 265 266 266 267 267 266 266 266 266 266 266 266 266 266 266 266 266 266 266 267 267 267 267 267 267 267 266 266 265 265 264 264 264 264 263 264 264 263 263 263 263 262 262 262 262 261 261 261 261 261 260 260 260 260 261 262 262 262
267 267 267 267 267 267 267 267 267 267 266 266 266 266 266 266 265 265 265 265 265 264 264 264 264 264 264 264 264 265 265 265 265 265 264 264 264 264 264 264 265 264 264 264 265 265 265 265 265 265 265 265 265 265 265 264 264 264 264 263 263 263 263 263 263 263 263 262 262 262 261 261 261 261 260 260 260 260 260 260 260 260 261 262 262
267 267 267 267 267 267 266 266 266 266 266 265 265 265 265 264 264 264 264 264 264 263 263 263 263 263 263 263 262 262 263 263 263 263 262 262 262 262 262 262 263 263 263 263 263 263 263 264 264 264 264 264 264 264 264 264 263 263 263 263 263 263 263 263 263 263 262 262 261 261 261 261 261 261 260 260 260 260 260 260 260 260 261 261 262
266 266 266 265 265 265 265 265 265 265 264 264 264 264 264 264 263 263 263 263 262 262 262 262 261 261 261 261 261 261 261 261 261 261 261 261 261 261 261 261 261 261 261 262 262 262 262 262 263 263 263 263 263 263 263 263 263 262 262 262 262 262 263 263 263 262 261 261 261 261 261 261 261 260 260 260 260 259 259 259 259 259 260 261 261
265 265 265 264 264 264 264 264 264 263 263 263 263 263 263 263 262 262 262 262 261 261 261 261 260 260 260 260 260 260 260 260 260 261 261 261 261 261 261 261 260 260 260 260 261 261 261 261 261 261 261 262 262 262 262 262 262 262 262 262 262 262 262 262 262 261 261 261 261 261 261 260 260 260 260 260 260 259 259 259 259 259 260 261 261
264 264 264 264 264 263 263 263 263 263 262 262 262 262 262 261 261 261 261 261 260 260 260 260 260 260 260 260 260 260 260 260 260 260 260 260 261 261 260 260 260 260 260 260 260 261 261 261 261 261 261 261 261 261 261 261 261 261 261 261 261 262 262 261 261 261 261 261 261 260 260 260 260 260 260 260 259 259 259 259 259 260 261 261 261
264 263 263 263 262 262 262 262 262 262 262 261 261 261 261 261 261 260 260 260 260 260 260 260 260 260 260 260 260 260 260 260 260 260 260 260 260 260 260 260 260 260 260 260 261 261 260 260 261 261 261 261 261 261 261 261 261 261 261 261 261 261 261 261 261 261 261 261 260 260 260 259 259 259 259 259 259 259 259 259 259 260 260 260 261
263 262 262 262 262 262 262 261 261 261 261 261 261 261 261 261 261 261 260 260 260 260 260 260 260 260 260 260 260 260 260 260 261 261 261 261 260 260 260 260 260 260 260 260 260 260 260 260 260 260 260 260 260 260 260 260 260 260 261 261 261 261 261 261 261 261 260 260 260 259 259 259 259 259 259 259 259 259 258 258 258 259 259 260 261
262 262 262 262 261 261 261 261 261 261 261 261 261 261 260 260 261 260 260 260 260 260 260 260 260 260 260 260 261 261 261 261 261 261 261 261 261 261 261 261 261 261 261 261 261 261 260 260 260 260 260 260 260 260 260 260 260 260 261 261 261 261 261 260 260 260 260 260 259 259 259 259 259 259 259 259 259 258 258 258 258 258 259 260 260
262 262 261 261 261 261 261 261 261 261 261 261 261 260 260 260 260 260 260 260 260 260 260 260 260 260 261 261 260 260 260 261 261 261 261 261 261 261 261 261 261 261 261 261 261 261 261 260 260 261 261 260 260 260 260 260 260 260 261 261 260 260 260 260 260 260 260 259 259 259 259 259 258 258 259 259 258 258 258 258 258 259 259 260 260
Wind_Speed
37 37 36 36 37 37 35 34 33 32 32 31 30 28 27 26 24 23 22 20 18 16 13 12 11 10 9 8 8 8 7 7 6 6 5 5 4 4 3 3 2 2 2 1 1 1 2 2 3 4 5 5 6 7 7 6 6 6 7 8 10 9 11 13 13 22 34 31 20 22 28 28 27 28 31 34 35 33 31 30 32 33 32 32 31
38 37 37 37 37 36 35 35 34 33 32 31 30 29 27 26 24 23 21 20 17 15 13 12 11 10 10 9 9 9 8 7 7 6 6 5 4 3 3 3 3 2 2 3 3 3 2 2 3 4 5 6 6 7 7 7 7 8 9 9 12 12 11 14 16 18 29 33 26 24 29 29 27 28 30 33 34 32 31 32 33 33 33 33 31
38 38 38 37 37 36 36 35 35 34 33 32 30 29 27 26 24 22 21 19 17 14 13 12 12 11 11 10 10 10 9 8 7 6 5 4 3 3 3 3 3 3 3 3 3 3 3 3 4 5 6 6 6 6 7 7 8 9 11 12 14 16 13 13 16 18 24 32 29 25 28 30 29 28 29 30 30 30 31 33 34 33 33 33 32
38 38 38 37 37 37 37 36 36 34 34 33 31 29 27 26 24 22 20 19 17 15 14 13 12 12 11 11 11 10 9 8 7 6 5 4 3 3 4 4 4 3 3 3 4 4 4 5 5 6 7 6 6 7 7 8 10 11 14 16 15 16 15 13 15 17 21 28 29 25 26 29 29 28 29 29 29 30 32 33 34 33 32 31 32
39 39 39 38 38 38 38 38 37 36 35 33 31 29 28 26 24 22 20 19 17 16 15 14 13 12 12 12 11 10 9 7 6 5 5 4 4 5 5 4 4 4 4 4 4 5 6 6 6 6 7 7 7 8 9 10 12 14 16 17 15 14 15 15 14 15 18 23 26 25 24 26 27 26 26 29 32 34 34 33 33 32 32 32 32
39 39 39 39 39 40 40 39 38 37 35 33 31 30 28 26 25 23 21 19 18 17 16 15 14 14 13 13 11 10 8 7 6 5 5 5 5 5 5 4 4 4 5 6 6 7 7 7 7 7 7 7 7 8 10 11 14 16 16 15 14 15 15 14 13 13 15 17 20 22 23 23 25 25 25 29 34 36 36 37 34 31 32 33 33
40 40 40 40 41 41 41 40 39 38 36 34 32 31 29 26 25 23 21 20 19 18 17 16 15 14 14 13 11 9 8 7 6 6 6 7 6 6 6 5 5 6 6 7 7 8 8 8 8 7 7 7 8 8 11 13 14 15 14 14 14 14 13 11 11 12 15 16 17 20 23 25 27 28 28 30 33 33 32 34 35 33 33 33 34
40 40 40 41 41 42 42 40 39 37 36 34 33 31 29 27 25 24 22 21 19 18 17 17 16 15 14 12 11 9 8 7 7 7 8 8 7 7 7 6 7 7 7 8 8 9 9 9 8 8 7 7 8 9 11 13 13 13 13 13 13 14 13 13 15 16 19 19 19 21 25 27 26 27 29 30 30 32 32 32 34 36 36 35 34
41 41 41 41 41 42 41 40 39 38 36 35 34 32 30 28 26 25 23 22 20 19 18 17 16 16 14 12 11 10 9 8 8 8 9 9 8 8 8 8 8 8 8 8 9 9 9 9 8 8 8 8 8 10 11 11 10 11 12 12 12 14 15 16 18 19 21 21 22 23 24 23 21 25 31 31 31 36 38 34 33 35 36 35 34
41 41 41 41 41 41 41 40 39 38 38 37 35 33 31 29 28 27 25 23 22 21 20 19 18 16 15 14 13 11 10 9 8 9 10 9 9 9 9 9 9 9 10 9 10 10 9 9 9 8 8 9 10 11 11 9 9 10 11 11 11 13 15 17 18 19 20 21 23 22 21 22 23 26 33 35 32 34 35 31 31 34 34 31 31
42 42 41 41 40 40 40 40 40 39 39 38 36 34 32 30 29 28 27 26 24 23 22 21 19 17 16 15 14 12 11 10 9 10 11 11 11 10 10 11 10 10 11 11 11 11 10 10 9 9 9 10 10 11 10 9 9 9 9 10 10 11 14 17 20 20 21 22 23 22 21 25 27 26 28 31 30 30 31 29 30 33 31 26 25
41 40 40 39 39 40 40 40 40 40 40 40 38 36 34 32 32 30 29 28 26 25 24 22 20 19 17 16 15 13 12 11 11 11 12 12 12 12 11 11 12 11 12 13 13 12 12 11 10 10 10 10 11 11 10 10 8 8 9 10 10 12 13 16 19 21 22 23 24 25 23 25 26 24 25 29 31 33 33 31 32 32 30 25 23
39 38 38 38 39 40 40 40 40 41 41 41 39 37 36 35 34 33 31 29 28 27 25 23 21 20 19 18 17 15 13 12 12 13 13 13 13 13 13 12 13 13 13 14 14 13 13 12 11 11 11 11 11 11 10 10 8 7 9 11 13 14 14 15 17 19 22 24 26 27 26 24 26 27 28 30 33 34 33 32 32 30 29 28 27
36 37 37 38 39 39 39 40 41 41 41 40 40 39 39 38 36 34 32 31 30 28 27 25 23 22 21 19 18 16 14 14 14 14 14 14 14 15 14 14 15 15 15 16 15 14 13 12 13 12 11 11 11 10 9 8 8 10 13 15 16 15 15 16 18 18 20 21 23 26 26 25 27 30 31 31 32 33 32 32 33 32 32 33 32
35 36 37 37 37 38 39 40 40 40 39 40 40 40 40 39 37 36 34 33 32 30 28 27 25 24 22 21 19 18 16 15 15 16 16 16 16 16 16 16 16 16 17 16 16 15 13 13 14 13 12 11 10 8 8 8 10 14 16 16 16 16 17 19 19 18 19 20 22 24 25 24 26 29 31 32 32 32 32 32 33 33 34 34 32
36 37 38 37 37 39 39 39 39 38 39 39 40 41 41 40 39 37 36 34 33 31 30 28 27 25 24 23 21 20 18 17 17 17 18 18 17 17 17 18 18 18 18 17 17 16 14 14 15 13 12 11 8 6 8 10 13 15 16 16 18 20 20 19 17 18 20 21 21 22 23 24 27 28 29 29 29 30 31 31 30 30 29 29 27
38 38 38 38 39 39 39 39 39 39 39 40 42 43 43 41 40 38 37 36 35 34 33 30 28 27 26 25 24 22 20 20 19 19 20 20 19 19 19 19 19 19 19 18 17 16 15 15 14 14 13 10 5 5 8 11 13 15 17 20 21 21 21 21 20 19 18 18 18 21 24 26 27 27 27 26 24 25 27 26 27 27 25 21 19
38 38 38 39 40 40 40 41 41 40 41 42 44 44 43 42 42 40 39 39 38 37 34 32 30 29 28 27 26 24 22 21 21 21 21 21 22 21 21 21 21 21 20 19 18 17 16 15 14 14 14 9 5 7 10 12 14 16 18 20 21 20 22 24 23 20 18 19 22 25 27 27 27 25 25 24 22 21 20 21 24 25 22 18 19
38 39 40 40 40 40 41 42 42 41 42 43 44 44 43 43 43 42 41 41 39 37 35 33 33 31 30 29 27 26 24 23 23 23 23 23 23 23 23 23 23 23 22 20 19 18 17 16 15 14 13 11 10 12 13 12 14 16 17 18 20 22 23 22 20 19 21 25 29 29 27 25 25 24 24 24 22 19 17 18 21 22 21 20 22
39 39 39 38 38 40 41 42 42 43 44 44 44 44 44 43 42 42 42 40 38 37 36 36 35 33 32 31 30 29 27 26 25 25 24 24 24 25 25 26 25 24 22 21 20 19 18 17 15 13 14 14 14 14 13 12 13 15 16 18 20 23 22 19 17 19 25 29 30 28 25 24 24 24 24 24 22 18 16 17 18 19 19 21 22
36 36 36 36 38 40 41 42 43 43 44 44 43 43 42 42 42 42 42 40 38 38 37 37 36 35 34 34 33 32 30 28 27 27 26 25 25 26 28 28 26 24 23 21 21 20 19 18 16 14 14 15 14 14 13 13 13 14 17 19 19 19 18 17 19 22 26 27 26 24 23 23 23 24 24 24 22 20 19 18 17 17 18 20 22
33 34 34 35 37 38 40 41 42 42 42 42 41 41 41 41 41 41 40 39 38 38 38 37 37 37 36 36 36 34 33 31 30 29 28 27 27 28 29 29 27 25 24 23 23 22 21 18 16 14 14 15 15 14 14 13 13 15 17 17 15 14 16 18 21 23 23 22 22 22 22 23 24 25 25 24 23 23 23 22 20 18 18 19 21
30 31 32 34 36 37 38 40 40 40 41 41 41 41 40 40 40 39 38 38 37 37 37 37 36 37 37 38 39 38 36 34 33 31 30 29 29 29 29 29 27 27 26 26 24 23 21 18 16 15 15 16 16 15 14 14 14 15 16 14 13 14 17 20 20 20 19 19 19 20 21 22 24 25 25 24 24 24 24 24 23 21 21 21 21
26 28 30 32 34 35 36 37 38 39 40 40 40 39 39 39 39 38 38 37 37 37 38 37 36 37 38 40 41 40 39 38 36 34 32 31 31 30 29 28 27 27 27 26 25 23 20 18 17 16 16 17 17 16 14 13 13 14 13 12 12 15 18 19 17 16 16 17 17 19 20 21 23 24 24 23 23 23 24 24 24 24 24 25 25
23 25 27 29 31 33 34 35 36 38 39 39 39 39 39 38 38 38 37 37 37 38 38 37 37 37 38 40 43 43 42 40 39 36 34 32 31 31 30 28 27 27 27 27 25 22 19 17 17 17 17 18 17 16 16 16 16 15 12 11 14 17 17 16 15 14 15 15 16 18 20 20 22 23 22 21 21 22 24 25 26 27 27 28 29
20 22 24 26 28 29 30 32 33 35 36 37 39 39 39 39 39 38 38 38 38 39 38 37 37 37 38 41 44 43 42 42 41 38 35 33 32 31 31 29 27 27 27 26 24 21 19 18 18 18 19 19 19 19 19 20 19 16 13 14 16 16 15 14 13 13 14 14 16 18 19 20 21 21 20 20 21 22 23 25 28 29 29 30 32
18 20 21 23 24 26 28 30 31 32 34 35 36 37 38 38 38 38 39 39 39 39 39 38 38 38 40 43 43 40 38 39 39 37 35 34 34 32 31 30 28 27 28 28 25 23 21 20 18 18 19 21 21 20 19 20 19 17 17 17 16 15 14 13 13 13 13 14 15 17 18 19 20 20 20 20 21 22 23 24 26 28 29 29 30
14 16 17 19 21 23 25 27 28 30 32 34 35 36 37 38 39 41 42 42 42 41 40 39 40 41 41 40 36 33 34 37 38 37 36 35 35 34 33 32 31 30 30 29 27 26 25 23 20 20 21 21 21 20 20 21 20 19 18 16 15 14 13 12 12 13 12 13 15 16 18 19 19 19 19 20 21 22 23 24 24 26 28 27 25
12 13 14 16 18 20 22 24 26 28 30 32 34 36 37 38 40 42 43 42 42 42 40 40 42 41 39 37 33 31 34 38 38 36 34 34 34 34 32 30 30 31 31 29 26 25 26 25 24 25 25 25 24 24 24 24 22 20 18 17 15 14 13 13 13 13 12 12 14 16 17 18 18 18 18 20 22 22 22 23 24 25 27 26 24
13 13 15 16 17 19 21 23 24 26 28 30 32 33 34 36 37 39 40 39 39 39 39 39 40 38 36 37 36 35 36 37 34 31 30 30 31 30 28 26 26 28 28 25 24 24 25 25 26 26 27 27 27 27 27 25 23 21 19 18 17 16 14 14 13 12 12 12 13 15 16 16 17 17 18 20 22 23 23 23 23 24 25 24 25
14 15 16 16 17 18 20 21 23 25 27 28 29 31 32 33 34 36 36 36 35 36 36 37 36 34 34 36 35 34 33 32 30 28 27 25 25 26 26 25 25 25 24 22 22 24 25 25 25 26 27 29 29 28 27 25 23 22 20 19 18 17 16 15 13 12 13 13 13 14 15 15 15 16 17 19 21 22 23 23 23 23 23 23 24
15 15 15 16 16 17 19 20 21 23 25 26 27 27 28 29 30 32 32 31 31 31 32 32 31 30 29 29 30 31 30 28 28 27 25 23 23 23 23 23 23 22 22 23 25 26 27 26 26 26 28 29 30 29 28 25 23 22 21 20 19 18 17 15 13 13 13 13 13 14 14 14 15 15 16 18 19 21 22 22 22 23 23 24 24
14 14 14 15 15 17 18 19 20 22 23 24 25 25 25 26 27 28 27 27 27 26 25 25 25 25 24 22 23 25 26 25 26 26 23 22 21 21 21 22 22 22 23 25 27 27 27 27 28 28 29 30 30 29 27 26 24 23 22 21 20 18 17 16 15 14 14 13 13 14 14 14 14 15 16 17 18 19 20 21 21 22 22 23 25
12 13 14 15 15 16 17 18 19 20 21 22 23 23 24 25 25 24 23 22 23 24 23 22 21 21 21 21 20 20 20 20 22 22 21 19 19 19 20 21 22 23 26 28 29 27 26 26 27 28 29 30 30 28 27 26 25 24 23 22 20 18 17 16 17 16 15 14 14 14 14 14 14 15 16 17 18 18 19 19 20 21 21 22 23
12 13 14 15 15 16 16 16 17 18 19 20 20 21 22 22 22 22 21 20 20 22 22 21 20 19 20 20 20 21 20 20 19 19 19 18 18 19 20 22 23 24 26 28 29 27 26 26 27 28 30 31 29 28 27 27 26 25 24 23 20 18 17 17 18 17 16 15 15 15 14 14 15 15 15 17 18 18 19 19 19 20 21 21 21
12 13 13 14 14 14 15 15 15 16 17 17 18 19 19 19 19 20 20 19 19 20 20 19 18 18 18 19 19 19 19 20 19 18 19 20 20 21 23 24 24 24 25 27 28 27 26 26 27 28 30 31 30 28 28 28 27 26 25 23 21 19 18 18 18 18 17 16 16 16 15 15 16 15 15 16 17 17 18 19 19 21 21 20 20
11 11 12 12 12 13 13 13 13 14 14 14 15 16 16 17 17 17 17 18 18 18 18 16 15 15 16 19 20 19 17 17 18 18 18 17 18 20 23 24 23 23 25 26 26 27 28 28 28 29 30 30 29 28 29 29 28 26 25 23 22 20 19 18 18 18 18 17 17 17 16 16 16 16 15 16 18 18 17 18 19 21 21 19 20
9 10 10 10 10 10 11 11 11 11 11 12 12 13 13 14 14 15 16 16 16 16 16 14 13 12 13 15 17 18 18 17 18 19 18 17 16 18 21 22 22 22 24 24 24 25 28 29 30 31 32 31 31 31 31 30 28 26 25 24 22 21 19 19 19 19 19 18 18 17 17 17 17 16 16 16 18 19 19 19 19 20 20 20 20
7 7 7 7 7 7 7 8 8 8 9 9 10 10 11 12 12 12 13 13 13 13 13 13 13 12 12 13 14 16 16 17 18 20 22 22 22 22 22 23 23 23 24 24 25 26 28 29 31 32 32 32 32 32 31 30 28 27 25 24 23 22 20 20 20 19 19 19 19 18 18 18 17 17 17 17 18 19 19 19 18 18 19 21 22
5 5 5 5 5 5 5 6 6 7 7 8 8 8 9 9 10 10 11 11 11 11 11 12 12 12 12 12 13 13 15 16 17 18 20 22 23 24 25 25 25 25 24 24 24 25 27 28 30 30 31 31 31 30 30 29 28 27 26 25 24 23 21 21 20 20 19 19 19 19 19 18 18 18 18 18 18 18 18 18 18 18 19 20 22
3 3 3 3 3 4 4 4 5 5 6 6 7 7 7 8 8 8 9 9 10 10 10 10 11 11 10 10 9 10 12 14 15 16 18 19 20 21 23 24 25 25 25 25 25 25 26 28 29 30 29 29 29 29 30 30 29 27 26 26 25 24 22 21 21 21 20 19 19 19 19 19 18 19 20 19 18 18 19 20 19 19 19 20 21
4 2 1 1 2 2 2 3 3 4 4 5 5 5 6 6 7 7 8 8 9 9 9 9 9 9 9 8 7 8 11 13 13 14 15 16 18 19 20 21 22 23 25 26 26 27 28 29 30 30 29 29 29 29 29 29 28 27 27 26 25 24 23 22 21 21 20 19 19 20 20 19 19 19 20 20 19 20 21 20 19 18 18 20 21
4 3 2 2 2 2 2 2 2 3 4 4 4 5 5 6 6 6 7 7 7 7 8 8 8 9 9 9 8 9 12 13 14 14 14 14 16 17 18 19 20 22 23 24 25 26 27 29 29 29 29 28 28 28 28 27 26 26 25 25 24 24 23 22 21 21 20 20 19 19 19 19 19 20 20 20 21 21 21 19 18 18 18 20 21
4 3 2 2 2 2 1 1 2 3 3 4 4 4 5 5 5 6 6 6 6 7 7 8 9 9 9 9 9 10 12 13 14 15 16 16 17 17 17 18 20 21 23 24 24 24 25 27 28 28 28 27 26 25 26 25 25 25 24 24 23 23 23 23 22 21 20 19 19 20 20 20 20 20 20 20 20 20 20 19 18 18 17 19 20
3 2 2 2 2 2 2 2 2 2 2 3 3 3 4 4 5 5 6 6 6 7 7 8 8 8 9 9 9 10 11 12 13 14 16 16 17 17 17 18 18 20 21 23 23 23 23 24 25 26 26 26 26 26 26 26 25 24 23 23 23 23 23 22 21 20 19 20 20 20 20 20 20 20 20 20 19 19 19 19 18 17 17 18 19
2 2 1 2 2 2 2 3 3 3 4 4 4 4 5 5 5 5 5 6 6 6 7 7 8 9 9 10 10 11 11 12 13 14 14 15 16 16 17 17 17 18 18 19 21 23 24 25 25 26 27 27 28 28 27 25 24 23 23 23 23 23 22 22 21 20 20 20 20 19 20 20 20 20 20 19 19 18 19 19 18 17 17 17 19
2 2 2 2 2 2 3 3 3 4 4 4 5 5 5 5 6 6 6 6 7 7 8 8 8 8 9 9 9 10 11 11 12 13 13 14 15 15 15 16 16 17 16 16 17 19 21 23 24 25 26 26 26 26 25 24 22 22 22 22 22 23 22 21 21 21 20 19 19 19 20 20 20 20 19 19 19 19 20 20 19 17 16 17 18
2 2 2 2 2 2 3 3 3 3 3 4 4 5 5 5 6 6 7 7 7 7 7 8 8 8 9 9 9 10 11 12 13 13 14 14 15 15 15 15 16 16 16 16 16 16 17 18 20 21 21 22 22 22 23 22 21 21 21 21 22 22 22 21 20 20 19 18 18 19 19 20 20 20 20 20 20 20 20 20 18 17 16 17 19
2 2 2 2 2 2 2 3 3 3 3 3 4 4 4 5 6 6 6 7 7 7 8 8 9 9 10 10 11 11 12 12 13 14 14 15 15 15 15 16 16 16 16 16 16 16 16 16 17 18 19 19 20 21 22 22 21 21 21 21 21 21 20 20 20 19 18 18 19 18 19 19 20 19 19 20 20 19 19 18 17 17 17 19 21
3 3 2 2 2 2 2 2 3 3 4 4 5 5 6 6 7 7 7 8 9 9 9 9 10 10 11 11 12 12 13 13 14 14 15 15 15 15 15 16 16 16 16 17 16 16 15 16 16 17 18 19 19 20 21 21 21 20 20 19 19 19 19 19 19 18 18 18 18 18 18 18 19 19 19 19 18 17 17 17 17 18 19 21 21
2 2 2 2 2 2 3 3 4 4 5 6 6 7 7 8 8 8 9 10 10 10 10 10 11 11 12 12 13 13 14 14 14 14 14 14 14 14 15 16 16 16 16 16 16 16 15 15 16 16 17 18 18 19 19 19 19 19 19 18 18 18 18 18 18 17 17 17 17 18 18 18 18 17 17 16 16 16 16 17 17 19 21 21 21
Wind_Direction
178 178 178 178 178 178 179 180 179 177 174 173 172 170 167 165 163 160 158 156 152 146 139 136 139 146 156 166 176 181 184 184 184 186 188 185 176 169 169 174 180 182 193 243 264 277 298 311 316 315 321 331 335 337 339 345 346 336 326 315 310 308 301 297 285 287 299 306 311 314 317 320 324 325 325 325 329 332 332 331 332 331 331 331 332
180 180 180 180 180 180 181 181 179 177 176 175 174 172 170 168 166 164 161 157 154 151 145 144 150 159 167 176 184 188 190 193 194 192 192 189 181 182 186 195 213 212 210 235 251 265 286 306 315 311 315 324 327 329 334 338 334 323 318 314 310 309 303 298 295 291 296 303 311 317 318 322 325 325 326 326 328 331 330 328 328 328 328 328 327
182 182 181 182 182 181 181 181 179 179 178 177 176 174 172 170 169 167 163 159 156 154 151 153 159 167 175 182 189 193 195 195 195 194 196 199 200 208 216 218 227 233 234 245 259 277 296 310 312 307 308 313 318 323 329 330 324 316 314 314 312 310 305 296 294 294 296 300 309 319 321 322 324 325 327 326 326 327 326 325 326 325 325 326 324
184 183 183 183 183 182 182 180 180 181 180 179 178 176 174 172 171 169 166 163 160 158 158 161 168 174 180 188 193 196 196 196 198 200 204 214 222 231 237 238 241 246 252 260 277 291 299 302 302 303 302 304 313 323 327 324 319 316 314 314 315 313 311 304 297 297 297 299 307 317 321 321 322 325 327 327 326 325 322 322 323 323 323 323 322
185 185 185 184 183 183 182 182 183 183 183 182 180 178 177 175 172 171 170 168 164 164 165 169 176 180 183 190 195 197 198 200 205 212 218 225 232 240 244 248 253 260 269 276 283 288 290 292 293 293 296 304 316 323 323 321 316 314 314 316 321 322 318 315 310 304 299 298 305 314 320 321 321 324 329 327 324 323 322 320 321 321 320 320 319
187 187 186 185 184 184 184 184 185 186 185 184 182 181 180 177 174 174 175 173 169 169 172 176 180 181 185 191 195 197 200 206 216 227 236 239 241 247 251 258 264 267 273 277 278 281 281 283 287 289 293 303 314 318 317 315 312 312 316 321 325 325 321 318 315 309 302 298 304 312 317 321 321 320 324 326 321 319 320 320 319 318 319 318 317
188 188 188 187 186 186 186 187 187 188 187 186 184 184 182 180 178 177 178 177 174 174 177 180 181 181 187 192 194 198 203 213 226 235 244 247 247 252 258 263 268 270 273 275 275 276 277 277 281 286 289 295 305 310 308 307 309 312 317 322 323 322 317 312 310 308 304 301 302 305 308 312 315 313 316 322 320 316 316 316 315 316 316 314 313
189 189 189 189 189 189 189 189 189 190 189 187 187 187 184 183 182 180 180 179 179 179 180 181 181 183 188 192 196 200 206 219 232 240 245 247 249 257 263 265 268 271 273 276 276 275 276 277 279 281 283 287 294 298 298 302 307 310 313 316 316 314 309 306 307 306 304 300 298 301 304 306 308 311 314 319 318 316 317 312 306 309 312 310 309
190 190 191 192 192 191 190 190 191 191 190 189 190 189 186 185 184 184 183 182 181 181 182 182 184 187 190 194 200 204 210 222 234 242 247 249 254 260 266 269 273 276 276 277 278 278 278 278 277 275 276 278 282 285 290 295 298 301 305 308 309 310 309 308 307 305 303 301 300 302 302 299 301 308 312 313 310 312 316 311 300 304 310 307 305
191 192 194 194 194 193 191 191 192 192 192 192 192 191 189 188 187 187 186 184 184 183 184 185 187 189 192 197 203 206 212 223 234 242 247 252 259 263 268 273 274 277 280 279 278 280 279 278 277 275 274 274 277 281 286 288 288 291 296 300 303 305 306 306 304 303 301 299 299 301 298 297 303 307 307 308 309 309 311 309 301 305 310 307 304
193 195 196 196 195 194 193 192 193 194 194 194 195 194 191 191 191 191 189 187 187 187 188 189 190 192 195 200 206 209 213 222 232 241 247 253 260 265 268 273 276 278 281 282 281 281 279 277 277 276 275 278 280 282 286 287 287 288 290 291 293 294 298 301 301 301 300 298 300 303 300 300 303 303 301 306 311 309 308 308 305 305 306 304 304
196 197 197 196 196 195 194 193 194 196 197 197 197 196 194 195 195 194 192 191 191 191 192 193 194 195 199 203 208 211 214 222 231 238 246 253 262 267 268 272 277 280 282 284 283 281 279 277 275 275 278 281 282 285 289 288 285 291 294 288 285 287 291 296 299 301 303 303 303 303 302 300 300 302 306 310 312 311 308 306 306 303 301 301 303
198 198 198 198 198 197 195 195 196 198 199 199 199 197 197 199 199 197 196 195 195 195 196 197 197 200 204 206 210 213 215 222 231 236 243 250 259 267 272 276 279 281 283 282 280 279 279 276 273 274 277 278 278 281 287 289 293 309 313 302 295 296 294 293 296 299 300 301 299 298 301 304 304 307 312 313 311 310 308 307 308 308 306 306 309
199 199 200 200 200 198 197 197 198 200 201 201 201 200 201 203 202 201 200 199 199 200 200 201 202 204 208 208 211 215 217 223 231 236 241 246 252 261 270 276 278 279 278 276 275 275 274 273 272 272 272 270 272 277 283 294 308 318 316 307 302 304 303 300 300 299 298 297 296 297 302 306 306 307 311 313 312 311 311 312 313 313 309 308 308
200 202 202 203 202 200 200 201 201 202 203 203 203 203 205 206 205 204 204 204 204 205 204 205 206 208 211 211 213 217 220 224 229 235 241 245 248 254 264 270 273 274 273 271 272 272 271 269 267 266 267 264 265 273 283 297 309 308 304 300 300 304 305 303 303 303 301 299 296 297 301 304 306 308 310 313 312 310 310 311 311 311 310 309 308
202 204 205 204 203 203 202 203 203 204 204 205 205 206 208 208 208 208 208 208 209 210 210 210 211 212 213 214 216 219 222 224 227 233 238 242 245 250 258 264 267 268 268 267 268 269 270 266 262 261 261 260 263 272 275 284 293 293 292 295 300 303 301 299 301 301 300 300 298 299 302 306 308 309 311 313 313 313 313 312 313 316 314 311 310
205 206 206 206 206 205 205 205 206 206 206 207 208 209 210 210 211 211 210 212 212 213 213 214 215 216 216 217 219 221 223 225 227 231 236 240 243 247 253 258 261 263 264 263 264 265 264 261 257 256 254 254 264 273 265 271 278 282 288 296 300 300 299 300 305 307 303 300 300 301 305 308 311 312 314 318 320 321 321 318 318 319 314 309 312
208 207 208 209 208 208 208 209 209 208 209 210 211 212 212 213 214 214 214 215 216 216 216 217 218 219 219 221 223 224 225 226 228 231 236 238 240 246 251 254 256 258 259 259 259 260 260 258 254 253 255 258 266 266 261 263 271 280 290 296 297 296 298 305 314 316 308 300 301 306 310 313 316 319 323 328 331 332 327 321 320 320 315 314 317
210 210 212 212 211 211 211 212 212 212 212 214 215 216 216 216 216 217 218 219 220 219 219 220 222 223 223 225 227 227 227 226 228 232 235 236 238 244 249 250 251 254 255 256 256 256 256 255 250 248 252 255 257 259 258 258 268 280 288 291 291 293 300 309 316 310 302 302 307 313 316 320 324 329 335 339 340 338 331 324 325 326 322 319 318
213 214 215 214 213 214 214 214 215 215 217 218 219 220 220 219 218 219 220 221 221 222 223 224 225 226 227 228 229 229 229 227 228 232 235 235 237 242 247 248 249 251 252 253 253 253 252 250 247 241 240 243 248 251 250 253 266 276 280 282 285 292 302 309 302 295 298 304 310 314 318 324 332 337 341 345 345 341 332 328 328 326 322 316 314
217 217 217 217 217 217 217 218 219 219 221 222 222 222 223 222 222 222 222 222 221 223 224 225 226 228 229 230 231 232 232 231 230 231 233 234 235 239 245 248 248 250 252 251 251 252 250 248 247 240 232 236 242 242 245 255 264 269 272 275 280 290 298 296 289 291 299 304 309 313 320 328 336 340 342 344 343 338 333 329 325 322 318 313 309
220 220 219 220 220 220 221 221 222 222 223 223 223 224 225 225 227 227 225 223 223 224 226 226 227 228 230 231 232 233 233 233 232 230 231 234 235 236 242 249 250 248 248 248 249 250 250 249 248 241 232 234 236 237 245 256 261 264 269 273 280 286 285 281 285 293 299 303 309 315 322 331 336 338 340 341 339 337 334 330 326 322 316 311 307
224 223 223 223 224 224 224 224 224 224 224 224 225 226 227 227 228 228 227 226 225 226 227 228 228 229 230 232 233 234 234 234 233 231 230 233 235 236 239 245 248 246 246 248 250 251 251 249 245 240 235 232 232 236 245 253 257 262 267 273 278 276 273 276 285 293 298 305 312 316 324 332 334 333 335 335 336 336 334 330 328 325 319 314 309
226 226 226 227 227 227 227 227 226 226 226 226 226 227 227 227 227 228 228 227 226 227 229 229 228 230 232 233 235 235 235 234 233 232 231 231 234 236 236 237 239 243 246 250 251 251 249 244 238 237 237 233 234 240 243 245 253 263 270 273 270 266 268 277 285 292 299 306 312 316 323 329 329 328 330 330 332 335 334 331 329 326 323 320 317
225 227 228 229 230 230 229 228 228 228 228 228 227 227 227 226 226 227 227 226 226 228 229 229 230 231 233 235 237 237 237 236 234 232 231 231 233 236 236 233 232 236 242 248 251 250 243 236 234 236 237 235 236 238 237 243 257 268 268 263 260 262 269 277 283 290 297 304 310 314 319 325 326 325 326 328 331 335 335 332 329 327 327 326 323
226 228 229 230 230 230 229 229 229 229 230 230 230 230 229 228 227 227 226 226 227 228 229 230 231 232 234 237 240 240 238 237 235 232 230 231 232 234 235 233 230 232 238 244 248 245 238 234 234 236 238 239 239 238 241 253 267 273 266 259 258 262 268 274 278 286 293 301 307 309 314 320 323 323 325 328 331 335 335 331 327 327 329 329 326
226 227 229 230 230 229 229 229 229 229 229 229 229 230 230 230 228 226 226 225 225 227 229 230 230 232 234 238 240 240 240 239 237 233 229 230 232 233 233 232 230 231 234 237 239 238 236 235 235 238 241 240 238 241 250 262 272 275 268 262 260 262 266 271 276 283 290 296 300 303 309 315 318 320 325 328 330 334 335 330 325 325 328 329 325
225 229 231 231 231 231 231 231 231 230 229 229 229 228 229 229 228 229 230 229 227 227 228 229 231 232 235 238 239 240 240 241 239 235 231 231 233 233 232 230 227 227 230 233 235 236 236 236 234 236 238 238 237 245 256 263 270 274 269 262 260 263 267 271 275 279 284 289 292 298 307 313 314 318 324 326 327 331 333 330 325 323 326 327 323
231 234 235 234 235 235 234 234 234 234 233 232 232 231 232 232 233 235 237 237 235 235 234 235 237 238 239 240 241 239 241 245 246 244 239 237 237 236 236 235 232 232 233 234 235 236 236 236 234 234 236 240 244 250 256 261 268 274 271 264 264 266 267 270 274 277 281 287 293 301 307 310 311 316 321 323 324 328 330 328 325 324 325 325 319
239 238 237 237 237 236 236 237 236 236 236 236 235 235 235 236 238 240 242 242 241 241 241 243 245 246 246 247 246 246 249 254 257 255 249 243 241 240 242 242 241 240 239 235 234 236 235 234 233 232 235 239 243 247 251 256 265 273 271 265 265 268 269 270 274 278 283 289 297 303 305 306 309 315 319 319 320 324 326 325 324 323 324 322 318
242 241 240 241 241 240 241 240 239 239 239 239 239 238 238 239 240 242 244 245 246 245 245 247 249 251 252 254 255 255 256 259 259 257 253 247 243 241 242 241 239 239 236 228 226 230 232 230 230 231 234 238 240 243 248 255 263 270 270 265 265 268 271 273 275 278 282 288 297 302 304 305 307 312 314 315 317 320 322 323 324 323 322 320 317
248 250 250 250 248 247 246 244 242 241 240 240 240 240 241 242 243 244 244 245 248 250 249 249 250 251 253 256 258 259 258 256 254 253 250 247 244 239 236 235 231 228 225 221 223 228 229 229 231 232 234 236 239 242 247 253 260 267 268 264 263 267 272 276 278 278 281 288 296 300 303 305 306 309 312 313 314 316 318 320 321 321 320 319 317
256 259 260 258 255 251 249 247 245 244 243 242 242 242 241 243 247 250 249 247 248 250 249 248 248 248 247 248 252 257 258 256 252 248 244 242 239 232 227 227 226 222 219 220 225 229 229 229 231 233 235 238 241 244 248 254 261 266 266 263 263 266 272 277 278 277 280 286 292 297 300 303 306 309 311 313 313 313 314 315 317 318 319 318 317
261 263 263 262 260 256 254 252 251 250 249 247 246 246 245 246 249 253 255 252 250 249 247 245 244 245 246 247 247 249 251 250 247 245 240 235 229 225 225 228 230 228 226 227 230 233 231 230 233 236 240 242 242 245 253 259 263 265 264 262 263 266 269 272 274 276 280 285 288 293 297 301 305 308 309 312 313 311 309 311 314 316 317 315 315
260 261 261 262 261 260 259 257 255 255 254 251 250 251 252 252 252 253 254 254 254 254 254 252 248 245 246 250 251 251 249 246 242 239 236 232 228 227 229 233 234 233 233 233 235 236 235 235 238 242 245 245 245 249 259 263 264 265 265 263 263 264 265 268 270 273 278 282 286 290 296 300 303 304 304 308 309 307 307 309 311 313 313 312 311
260 261 261 261 260 260 260 259 259 258 258 257 257 256 255 255 254 254 255 256 257 259 261 262 259 253 247 247 249 250 248 245 242 238 235 233 231 229 231 233 235 235 235 237 238 240 241 243 246 248 249 247 248 255 263 265 265 267 267 264 262 263 263 265 269 272 276 280 283 289 295 297 299 301 302 304 304 302 302 305 308 310 310 308 309
265 264 263 262 261 259 259 259 259 259 259 259 258 257 255 255 256 256 257 257 257 260 263 264 263 258 249 244 242 241 238 236 237 239 239 238 236 235 237 239 240 239 238 238 238 241 244 247 251 253 253 251 253 260 265 266 267 269 266 262 261 262 262 264 268 271 275 278 283 289 292 294 297 299 300 300 301 300 300 302 305 307 306 305 307
271 270 268 266 263 261 260 259 258 256 255 255 254 254 255 255 255 256 257 257 258 260 261 261 259 254 247 242 241 240 237 234 234 237 239 241 243 244 247 249 249 246 245 244 243 244 247 249 252 255 255 256 258 262 264 265 267 267 264 261 261 261 262 263 266 269 273 278 282 287 289 291 295 298 298 297 297 297 298 301 304 305 304 305 307
277 276 274 271 268 264 262 260 257 254 252 251 252 252 252 253 254 254 255 257 257 256 256 256 254 252 248 245 244 246 248 246 244 243 245 247 247 247 248 251 253 252 252 252 252 252 253 254 255 256 257 258 260 261 262 264 266 266 264 261 260 259 260 262 265 268 271 275 280 284 288 290 294 297 297 294 293 295 298 301 302 302 302 303 305
288 280 274 272 270 266 264 262 259 256 254 253 252 252 252 253 254 255 254 253 253 252 251 251 252 254 255 254 253 256 259 258 256 254 253 254 254 253 252 253 255 256 257 258 257 258 258 258 259 260 260 260 259 259 261 265 266 266 264 260 258 259 261 262 264 268 270 274 279 283 286 290 294 295 294 292 292 295 297 297 297 299 299 300 303
327 306 284 278 273 270 271 269 264 261 260 257 257 257 257 257 256 254 252 251 249 249 249 250 253 258 261 263 262 264 266 270 272 271 268 267 266 265 263 262 262 263 263 264 264 264 264 264 265 265 264 262 260 261 264 267 266 264 262 260 259 260 261 262 264 267 270 274 278 282 285 290 292 292 291 291 292 292 292 292 294 297 298 299 302
7 0 328 311 308 299 296 286 279 275 270 264 263 262 259 257 254 248 245 245 246 246 248 252 258 262 265 268 269 269 270 273 277 277 276 275 274 274 274 272 271 271 270 270 269 269 269 269 269 268 267 266 266 267 268 267 264 262 260 259 259 260 261 263 265 268 270 274 278 283 286 289 289 287 287 288 289 290 291 292 293 293 294 296 301
21 25 14 351 343 342 332 303 285 280 271 264 263 260 255 252 249 245 245 245 246 251 255 260 266 272 274 273 271 266 265 266 269 273 276 277 276 277 277 277 278 279 278 278 277 275 274 274 274 272 271 270 270 272 271 268 265 263 260 259 259 260 262 264 266 269 272 276 281 284 285 285 285 285 285 286 288 290 291 290 289 289 290 295 299
21 20 0 334 335 338 324 288 271 266 262 259 255 251 252 253 250 249 254 256 257 264 269 272 277 282 284 282 278 272 270 271 273 277 281 283 283 282 280 277 277 277 278 279 281 281 279 277 276 275 274 273 272 272 271 268 265 261 259 258 259 260 262 266 269 273 277 279 281 282 283 282 282 282 282 285 288 288 288 289 290 289 289 292 297
11 358 325 305 302 298 291 288 284 276 271 271 267 263 265 268 267 266 270 273 274 276 279 282 285 288 290 292 291 288 287 288 289 290 291 292 293 293 291 288 284 280 276 275 276 277 278 277 276 275 274 274 274 274 272 270 266 262 259 260 261 263 266 270 274 277 279 278 279 280 280 279 280 280 281 284 287 286 286 289 289 286 285 289 293
356 341 313 288 282 279 275 275 278 277 275 276 279 279 278 278 279 280 281 284 287 289 290 292 293 293 294 295 295 294 294 294 293 293 295 295 296 298 299 298 296 292 286 280 275 272 273 273 273 273 273 274 275 275 273 270 267 263 262 262 264 266 270 273 275 276 277 276 277 278 276 275 276 276 277 281 283 282 285 288 286 282 284 287 292
345 338 313 292 289 285 277 274 275 277 277 276 279 283 284 283 286 289 291 293 295 296 295 296 295 294 294 295 295 295 296 296 296 297 299 300 301 303 304 303 301 298 296 291 284 278 275 273 273 273 274 273 274 274 272 270 267 265 264 264 265 268 271 273 274 275 275 274 274 273 271 271 273 273 275 278 279 280 283 285 283 282 284 288 293
348 340 313 301 298 292 291 296 295 289 287 285 282 282 283 283 285 288 292 293 295 294 294 296 296 297 299 301 302 304 305 304 304 305 305 305 306 307 306 304 303 300 298 295 291 287 284 280 278 277 275 274 273 272 271 271 269 266 265 266 267 269 271 272 272 272 271 270 270 269 268 268 269 271 274 277 278 280 284 283 281 282 284 286 291
13 8 348 331 324 312 310 318 316 307 305 302 294 292 293 291 291 293 295 295 296 298 300 302 306 307 308 309 310 311 310 308 308 308 308 307 307 307 305 304 303 301 299 297 295 293 290 287 283 280 278 275 274 272 271 271 271 269 269 269 269 269 270 269 268 268 267 266 266 265 264 266 269 271 274 276 277 278 281 279 277 280 282 283 289
31 29 19 4 352 338 327 324 320 313 308 303 299 299 299 295 296 298 299 298 301 304 306 307 308 308 308 309 309 309 308 308 308 309 308 307 308 307 305 304 302 301 300 298 296 294 292 288 285 282 280 277 275 274 273 274 273 271 270 270 268 268 267 265 264 264 264 263 264 264 264 266 269 270 272 274 275 275 277 275 274 277 281 282 286
27 21 7 349 338 326 316 311 308 303 298 295 295 296 295 296 299 301 300 300 303 305 306 306 305 304 304 306 307 307 307 308 308 308 308 308 307 306 305 304 303 302 301 299 297 295 293 289 286 284 282 279 278 277 276 276 275 273 272 271 268 266 264 262 261 261 261 260 263 264 265 266 268 269 270 273 275 274 273 272 272 275 279 280 282